Regional Weather Roundup
Issued by NWS Burlington, VT

Current Version | Previous Version | Text Only | Print | Product List | Glossary Off
Versions: 1 2 3 4 5 6 7 8 9 10 11 12 13 14 15 16 17 18 19 20 21 22 23 24 25 26 27 28 29 30 31 32 33 34 35 36 37 38 39 40 41 42 43 44 45 46 47 48 49 50

853
ASUS41 KBTV 131230
RWRBTV
VERMONT REGIONAL WEATHER ROUNDUP
NATIONAL WEATHER SERVICE BURLINGTON VT
700 AM EST SAT FEB 13 2016

NOTE: "FAIR" INDICATES FEW OR NO CLOUDS BELOW 12,000 FEET WITH NO
SIGNIFICANT WEATHER AND/OR OBSTRUCTIONS TO VISIBILITY.

* THESE REPORTS ARE NOT UNDER NWS QUALITY CONTROL AND/OR DO NOT
  REPORT WEATHER SUCH AS PRECIPITATION AND FOG.

VTZ001>019-131300-
_____VERMONT_____


CITY           SKY/WX    TMP DP  RH WIND       PRES   REMARKS
BURLINGTON     MOCLDY     7  -3  64 N12       29.91R WCI  -8
6HR MIN TEMP:   7; 6HR MAX TEMP:  20; 6HR PCP:  0.01;

MONTPELIER     LGT SNOW   7   0  73 NW9       29.83R WCI  -7
6HR MIN TEMP:   8; 6HR MAX TEMP:  12; 6HR PCP: TRACE;

MORRISVILLE    LGT SNOW   5  -2  72 N15       29.86R WCI -13
6HR MIN TEMP:   6; 6HR MAX TEMP:  19; 6HR PCP: TRACE;

ST. JOHNSBURY*   N/A     12   2  64 MISG      29.78R
6HR MIN TEMP:   8; 6HR MAX TEMP:  14;

LYNDONVILLE*   FAIR       8   0  70 W7        29.77R WCI  -4
6HR MIN TEMP:   8; 6HR MAX TEMP:  12;

RUTLAND*       CLOUDY    14   5  67 W8        29.81R WCI   3
6HR MIN TEMP:  10; 6HR MAX TEMP:  16;

SPRINGFIELD    FAIR       0  -4  83 CALM      29.82R
6HR MIN TEMP:  -1; 6HR MAX TEMP:   4;

HIGHGATE*      MOCLDY    -3 -11  69 W8G18     29.97R WCI -18
6HR MIN TEMP:  -1; 6HR MAX TEMP:  19;

NEWPORT*       LGT SNOW   4  -2  77 NW8       29.82R WCI  -9
6HR MIN TEMP:   5; 6HR MAX TEMP:  13;

BENNINGTON     CLOUDY    13   6  74 W3        29.82R
6HR MIN TEMP:   9; 6HR MAX TEMP:  14;

SUTTON*          N/A      5 N/A N/A MISG        N/A
GALLUP MILLS*    N/A      7 N/A N/A MISG        N/A
UNION VILLAGE*   N/A      5 N/A N/A MISG        N/A
MT. MANSFIELD*   N/A     -9 N/A N/A NW32        N/A  WCI -39

_____LAKE CHAMPLAIN_____


CITY           SKY/WX    TMP DP  RH WIND       PRES   REMARKS
COLCHESTER RF*   N/A      9   1  72 NW25        N/A  WCI -13
DIAMOND ISL*     N/A     14   3  62 NW16        N/A  WCI  -2

$$

NYZ007-026>031-035-052-083-131300-
_____NORTHERN NEW YORK_____


CITY           SKY/WX    TMP DP  RH WIND       PRES   REMARKS
PLATTSBURGH    PTCLDY     1 -12  54 NW10      29.93R WCI -15
6HR MIN TEMP:   1; 6HR MAX TEMP:  17;

SARANAC LAKE   CLOUDY   -12 -18  74 VRB6      29.82R HAZE    WCI -26
6HR MIN TEMP:  -9; 6HR MAX TEMP:  10; 6HR PCP: TRACE;

MASSENA        MIX PCPN -12 -22  61 W15G24    30.11R WCI -35
6HR MIN TEMP: -12; 6HR MAX TEMP:   9; 6HR PCP: TRACE;

OGDENSBURG*    PTCLDY   -17 -26  63 N8        30.14R WCI -34
WATERTOWN      CLOUDY   -10 -17  71 N13       30.14R HAZE    WCI -30
6HR MIN TEMP:  -9; 6HR MAX TEMP:  11; 6HR PCP: TRACE;

ALBANY         PTCLDY    15   4  61 W13       29.91R WCI   1
6HR MIN TEMP:  12; 6HR MAX TEMP:  19;

GLENS FALLS    PTCLDY    14  -4  44 NW7       29.88R WCI   4
6HR MIN TEMP:   6; 6HR MAX TEMP:  15;


$$
NHZ002-005-011-131300-
_____NEW HAMPSHIRE_____


CITY           SKY/WX    TMP DP  RH WIND       PRES   REMARKS
LEBANON        CLOUDY     6   2  83 CALM      29.80R
6HR MIN TEMP:   6; 6HR MAX TEMP:  11;

MT WASHINGTON  BLWGSNOW  -9  -9 100 W29         N/A  VSB 0   WCI -38
6HR MIN TEMP: -10; 6HR MAX TEMP:  -7; 6HR PCP:  0.03;

PLYMOUTH       LGT SNOW   6   4  89 CALM      29.79R
6HR MIN TEMP:   2; 6HR MAX TEMP:   7;

WHITEFIELD     LGT SNOW  11   6  81 W5        29.75R WCI   3
6HR MIN TEMP:   2; 6HR MAX TEMP:  11; 6HR PCP: TRACE;


$$

_____REGIONAL QUEBEC LOCATIONS_____


CITY           SKY/WX    TMP DP  RH WIND       PRES   REMARKS
MONTREAL       MOCLDY    -6 -15  65 W14G21    29.99R WCI -26
QUEBEC CITY    LGT SNOW   9   5  85 S7        29.78R WCI  -3
SHERBROOKE     FLURRIES   5   0  78 W12G20    29.80R WCI -11

_____REGIONAL ONTARIO LOCATIONS_____


CITY           SKY/WX    TMP DP  RH WIND       PRES   REMARKS
OTTAWA         PTCLDY   -18 -29  57 NW22G28   30.10R WCI -47

______KEY______
VSB  - VISIBILITY IN MILES
WCI  - WIND CHILL INDEX
HX   - HEAT INDEX
$$
NNNN




USA.gov is the U.S. government's official web portal to all federal, state and local government web resources and services.